Location: Krakow
(50.0830°N, 19.9170°E)
Time: 20:32:31
(UTC+01:00)

Altair - Pass Details

Date: 03 December 2023
Orbit: 1501 x 1682 km, 47.2° (Epoch: 03 March)

Event Time Altitude Azimuth Distance (km) Brightness Sun altitude
Rises 15:10:40 0° 288° (WNW) 4,679 10.5 2.9°
Reaches altitude 10° 15:14:15 10° 278° (W) 3,677 10.2 2.5°
Maximum altitude 15:21:37 28° 224° (SW) 2,514 10.0 1.6°
Drops below altitude 10° 15:28:58 10° 169° (S) 3,647 9.9 0.6°
Sets 15:32:31 0° 159° (SSE) 4,635 10.2 0.2°
